Weather in Sulak

Russia / Penza Oblast     53°05′10″N   43°32′01″E
temp.,
°C
wind,
m/s
gust,
m/s
humid.,
%
clouds,
%
prec.,
mm/h
press.,
hPa
HPBL,
m
4 december, sat
sat400:00+4ssw91890100 0.0 1008683
03:00+5ssw101980100 0.0 1006710
06:00+4ssw101887100 1.0 10041054
09:00+1wnw4898100 2.8 1008363
12:00+1w5883100 0.3 1010657
15:000wsw597688 0.3 1011599
18:00−1w4985100 0.0 1013419
21:00−2wnw5774100 0.0 1014791
5 december, sun
sun500:00−3w36785 0.0 1015240
03:00−3w25825 0.0 1016244
06:00−3w23855 0.0 1017103
09:00−3w118353 0.0 101839
12:00−1sw0170100 0.0 1018244
15:00−2e0074100 0.0 101912
18:00−2e1176100 0.0 102014
21:00−3ese237774 0.0 102059
6 december, mon
mon600:00−3ese2378100 0.0 102154
03:00−3ese2476100 0.0 102189
06:00−3ese3675100 0.0 1021191
09:00−2ese3871100 0.0 1022313
12:00−1ese4964100 0.0 1022436
15:00−1ese4966100 0.0 1022382
18:00−2ese41072100 0.0 1023357
21:00−2se51073100 0.0 1023462
7 december, tue
tue700:00−3ese6129099 0.1 1023460
03:00−2se61292100 0.2 1023445
06:00−2se71290100 0.1 1022462
09:00−2se71597100 2.3 1021443
12:000se71695100 1.8 1020472
15:00+1sse81798100 5.2 1018446
18:00+2sse71598100 0.5 1018410
21:00+2sse61598100 0.5 1018391
8 december, wed
wed800:00+3sse61794100 0.0 1018431
03:00+3sse61888100 0.0 1018435
06:00+3sse61688100 0.0 1018405
09:00+2sse61690100 0.0 1018385
12:00+3sse61486100 0.0 1018413
15:00+2se51285100 0.0 1017320
18:00+1se51288100 0.0 1017273
21:000se51191100 0.0 1017280